2022/12/20 00:00:00,45.7,-3.6
2022/12/20 00:10:00,45.5,-3.3
2022/12/20 00:20:00,45.2,-3.2
2022/12/20 00:30:00,45.1,-3.2
2022/12/20 00:40:00,45.0,-2.9
2022/12/20 00:50:00,44.9,-3.0
2022/12/20 01:00:00,45.3,-2.9
2022/12/20 01:10:00,45.0,-2.7
2022/12/20 01:20:00,45.1,-2.7
2022/12/20 01:30:00,44.9,-2.5
2022/12/20 01:40:00,44.9,-2.6
2022/12/20 01:50:00,44.8,-2.7
2022/12/20 02:00:00,44.8,-2.6
2022/12/20 02:10:00,44.8,-2.7
2022/12/20 02:20:00,44.7,-2.6
2022/12/20 02:30:00,44.6,-2.6
2022/12/20 02:40:00,44.5,-2.4
2022/12/20 02:50:00,44.6,-2.8
2022/12/20 03:00:00,44.6,-2.6
2022/12/20 03:10:00,44.3,-2.5
2022/12/20 03:20:00,44.4,-2.3
2022/12/20 03:30:00,44.5,-2.4
2022/12/20 03:40:00,44.2,-2.5
2022/12/20 03:50:00,44.1,-2.4
2022/12/20 04:00:00,44.3,-2.3
2022/12/20 04:10:00,44.1,-2.2
2022/12/20 04:20:00,43.9,-2.3
2022/12/20 04:30:00,43.9,-2.3
2022/12/20 04:40:00,43.8,-2.4
2022/12/20 04:50:00,43.8,-2.3
2022/12/20 05:00:00,43.6,-2.4
2022/12/20 05:10:00,43.5,-2.3
2022/12/20 05:20:00,43.4,-2.4
2022/12/20 05:30:00,43.5,-2.4
2022/12/20 05:40:00,43.4,-2.4
2022/12/20 05:50:00,43.4,-2.1
2022/12/20 06:00:00,43.2,-2.3
2022/12/20 06:10:00,43.0,-2.1
2022/12/20 06:20:00,42.9,-2.2
2022/12/20 06:30:00,42.9,-2.4
2022/12/20 06:40:00,42.9,-2.4
2022/12/20 06:50:00,42.7,-2.3
2022/12/20 07:00:00,42.7,-2.3
2022/12/20 07:10:00,42.7,-2.2
2022/12/20 07:20:00,42.5,-2.2
2022/12/20 07:30:00,42.4,-2.0
2022/12/20 07:40:00,42.3,-2.0
2022/12/20 07:50:00,42.1,-1.8
2022/12/20 08:00:00,42.1,-1.9
2022/12/20 08:10:00,41.9,-1.7
2022/12/20 08:20:00,41.7,-1.5
2022/12/20 08:30:00,41.8,-1.4
2022/12/20 08:40:00,41.7,-1.1
2022/12/20 08:50:00,41.7,-0.4
2022/12/20 09:00:00,41.5,-0.4
2022/12/20 09:10:00,41.3,-0.4
2022/12/20 09:20:00,41.1, 0.5
2022/12/20 09:30:00,41.1, 0.9
2022/12/20 09:40:00,41.0, 1.3
2022/12/20 09:50:00,40.8, 1.4
2022/12/20 10:00:00,40.7, 1.3
2022/12/20 10:10:00,40.6, 1.5
2022/12/20 10:20:00,40.5, 1.4
2022/12/20 10:30:00,40.3, 1.6
2022/12/20 10:40:00,40.1, 2.4
2022/12/20 10:50:00,40.0, 2.3
2022/12/20 11:00:00,39.9, 3.8
2022/12/20 11:10:00,39.5, 5.0
2022/12/20 11:20:00,39.4, 4.0
2022/12/20 11:30:00,39.1, 4.6
2022/12/20 11:40:00,38.7, 4.7
2022/12/20 11:50:00,38.2, 4.3
2022/12/20 12:00:00,38.1, 4.9
2022/12/20 12:10:00,38.0, 5.4
2022/12/20 12:20:00,37.6, 5.6
2022/12/20 12:30:00,36.4, 5.9
2022/12/20 12:40:00,32.1, 5.7
2022/12/20 12:50:00,30.7, 6.3
2022/12/20 13:00:00,30.5, 5.7
2022/12/20 13:10:00,30.4, 7.3
2022/12/20 13:20:00,30.1, 5.0
2022/12/20 13:30:00,29.9, 4.1
2022/12/20 13:40:00,29.5, 3.7
2022/12/20 13:50:00,29.1, 2.7
2022/12/20 14:00:00,29.2, 2.4
2022/12/20 14:10:00,29.5, 2.6
2022/12/20 14:20:00,29.5, 5.2
2022/12/20 14:30:00,29.2, 4.1
2022/12/20 14:40:00,29.5, 5.2
2022/12/20 14:50:00,29.7, 5.3
2022/12/20 15:00:00,29.6, 3.8
2022/12/20 15:10:00,29.5, 3.0
2022/12/20 15:20:00,29.5, 2.8
2022/12/20 15:30:00,29.5, 2.3
2022/12/20 15:40:00,29.5, 2.4
2022/12/20 15:50:00,29.8, 1.7
2022/12/20 16:00:00,30.0, 1.5
2022/12/20 16:10:00,29.8, 1.1
2022/12/20 16:20:00,29.7, 0.7
2022/12/20 16:30:00,29.6, 0.4
2022/12/20 16:40:00,29.5, 0.4
2022/12/20 16:50:00,29.6, 0.3
2022/12/20 17:00:00,29.7, 0.2
2022/12/20 17:10:00,29.7,-0.1
2022/12/20 17:20:00,29.8, 0.0
2022/12/20 17:30:00,29.7,-0.5
2022/12/20 17:40:00,29.5, 0.0
2022/12/20 17:50:00,29.5, 0.0
2022/12/20 18:00:00,29.5, 0.0
2022/12/20 18:10:00,29.4,-0.2
2022/12/20 18:20:00,29.3,-0.1
2022/12/20 18:30:00,29.2,-0.4
2022/12/20 18:40:00,29.0, 0.0
2022/12/20 18:50:00,28.9,-0.4
2022/12/20 19:00:00,28.8,-0.6
2022/12/20 19:10:00,28.8,-0.4
2022/12/20 19:20:00,28.7,-0.5
2022/12/20 19:30:00,28.6,-0.6
2022/12/20 19:40:00,28.6,-0.7
2022/12/20 19:50:00,28.5,-0.6
2022/12/20 20:00:00,28.3,-0.7
2022/12/20 20:10:00,28.1,-0.7
2022/12/20 20:20:00,27.9,-0.9
2022/12/20 20:30:00,27.9,-0.8
2022/12/20 20:40:00,27.9,-1.0
2022/12/20 20:50:00,27.9,-1.0
2022/12/20 21:00:00,27.9,-1.0
2022/12/20 21:10:00,27.7,-1.1
2022/12/20 21:20:00,27.6,-1.1
2022/12/20 21:30:00,27.6,-1.2
2022/12/20 21:40:00,27.5,-1.2
2022/12/20 21:50:00,27.5,-1.3
2022/12/20 22:00:00,27.4,-1.3
2022/12/20 22:10:00,27.4,-1.5
2022/12/20 22:20:00,27.1,-1.2
2022/12/20 22:30:00,27.0,-1.4
2022/12/20 22:40:00,26.9,-1.3
2022/12/20 22:50:00,26.9,-1.2
2022/12/20 23:00:00,26.7,-1.3
2022/12/20 23:10:00,26.6,-1.2
2022/12/20 23:20:00,26.6,-1.0
2022/12/20 23:30:00,26.6,-1.3
2022/12/20 23:40:00,26.6,-1.3
2022/12/20 23:50:00,26.5,-1.2
